Voltar ao catálogo

COSMOS 1474

AtivoNavegaçãoLEO
NORAD 14172·PAYLOAD·🇷🇺 Russia

Lançado Jul 6, 1983 de Plesetsk Cosmodrome

Loading…

Próximas Passagens (próximas 24 horas)

TLE

AtualizadoSource: Space-Track

Época: Sep 14, 2026, 22:44 UTC

1 14172U 83069B   26257.94740145 -.00000004  00000-0  74374-4 0  9991
2 14172  74.0266 310.9577 0033527 220.0605 316.9364 12.56677233981551

Acompanhe COSMOS 1474 em tempo real com AllMySat

Download on the App Store